Regional Weather Roundup
Issued by NWS Sioux Falls, SD

Home | Current Version | Previous Version | Graphics & Text | Print | Product List | Glossary On
Versions: 1 2 3 4 5 6 7 8 9 10 11 12 13 14 15 16 17 18 19 20 21 22 23 24 25 26 27 28 29 30 31 32 33 34 35 36 37 38 39 40 41 42 43 44 45 46 47 48 49 50
000
ASUS43 KFSD 231202
RWRFSD

WEATHER ROUNDUP FOR SE SOUTH DAKOTA/SW MINNESOTA/NW IOWA
NATIONAL WEATHER SERVICE SIOUX FALLS SD
700 AM CDT SAT AUG 23 2014

NOTE: "FAIR" INDICATES FEW OR NO CLOUDS BELOW 12,000 FEET WITH NO
SIGNIFICANT WEATHER AND OR OBSTRUCTIONS TO VISIBILITY.


SDZ038>040-050-052>070-231300-
SOUTHEAST SOUTH DAKOTA

CITY           SKY/WX    TMP DP  RH WIND       PRES   REMARKS
CHAMBERLAIN    CLOUDY    67  67  97 E6        29.85S
6HR MIN TEMP:  67; 6HR MAX TEMP:  71; 6HR PCP:  0.19;

HURON          LGT RAIN  70  69  97 E12       29.85F
6HR MIN TEMP:  70; 6HR MAX TEMP:  72; 6HR PCP:  0.16;

MADISON        CLOUDY    66  66 100 E10G17    29.91S
MITCHELL       CLOUDY    70  68  93 E8        29.85S
6HR MIN TEMP:  70; 6HR MAX TEMP:  73; 6HR PCP:  0.81;

SIOUX FALLS    CLOUDY    69  67  93 E7        29.90R
6HR MIN TEMP:  69; 6HR MAX TEMP:  73; 6HR PCP:  0.97;

WINNER         CLOUDY    69  67  93 E10       29.84S
YANKTON        CLOUDY    68  66  94 NE5       29.87F
$$

MNZ071-072-080-081-089-090-097-098-231300-
SOUTHWEST MINNESOTA

CITY           SKY/WX    TMP DP  RH WIND       PRES   REMARKS
FAIRMONT       CLOUDY    61  61 100 MISG      29.98R
JACKSON        TSTM      68  66  94 NE5       30.00R
LUVERNE        CLOUDY    70  68  94 E10       29.91R
MARSHALL       CLOUDY    68  64  88 S9        30.01R
6HR MIN TEMP:  68; 6HR MAX TEMP:  72;

MONTEVIDEO     CLOUDY    68  68 100 SE5       30.01S
PIPESTONE      LGT RAIN  68  64  88 E9G23     29.90F
REDWOOD FALLS  CLOUDY    68  67  96 CALM      29.99S FOG
TRACY          RAIN      68  67  97 SW7       30.04R
WINDOM         TSTM      68  66  94 CALM      30.03R
WORTHINGTON      N/A     70  12  11 NE20      29.92F
$$

IAZ001>003-012>014-020>022-031-032-NEZ013-014-SDZ071-231300-
NORTHWEST IOWA

CITY           SKY/WX    TMP DP  RH WIND       PRES   REMARKS
CHEROKEE       CLOUDY    68  68 100 NE7       29.89F
DENISON        CLOUDY    70  70 100 E10G16    29.85F
ESTHERVILLE    LGT RAIN  68  68 100 N8        29.96F FOG
LE MARS        CLOUDY    68  68 100 NE8       29.89S
ORANGE CITY    CLOUDY    70  66  88 E5        29.90R
SHELDON        CLOUDY    68  68 100 NE9       29.89S
SIOUX CITY     CLOUDY    72  67  84 E9        29.86S
6HR MIN TEMP:  72; 6HR MAX TEMP:  78; 6HR PCP:  1.36;

SPENCER        LGT RAIN  70  67  90 NE8       29.93F
6HR MIN TEMP:  69; 6HR MAX TEMP:  74; 6HR PCP:  0.68;

STORM LAKE     CLOUDY    68  68 100 E10       29.92F
$$

ABBREVIATIONS USED IN REMARKS
   TC - TEMPERATURE IN CELSIUS
  WCI - WIND CHILL INDEX
   HX - HEAT INDEX
  VSB - VISIBILITY




USA.gov is the U.S. government's official web portal to all federal, state and local government web resources and services.